| time (UTC) | temp F | wind direction | speed knots | gust knots | rain 1hr in | rain 24hr in | rain mn in | humidity % | barometer mb |
| 20260508105640 | 64 | 270 | 3.5 | 3.5 | 0.00 | 0.14 | 0.00 | 59 | 1012.4 |
| 20260508104640 | 64 | 315 | 5.2 | 5.2 | 0.00 | 0.14 | 0.00 | 62 | 1012.5 |
| 20260508103639 | 62 | 270 | 7.8 | 7.8 | 0.00 | 0.14 | 0.00 | 65 | 1012.5 |
| 20260508102640 | 62 | 270 | 7.0 | 7.0 | 0.00 | 0.14 | 0.00 | 65 | 1012.7 |
| 20260508101640 | 62 | 315 | 7.8 | 7.8 | 0.00 | 0.14 | 0.00 | 65 | 1012.6 |
| 20260508100640 | 62 | 68 | 7.0 | 7.0 | 0.00 | 0.14 | 0.00 | 64 | 1012.6 |
| 20260508095640 | 63 | 315 | 7.8 | 7.8 | 0.00 | 0.14 | 0.00 | 64 | 1012.5 |
| 20260508094642 | 63 | 270 | 7.8 | 7.8 | 0.00 | 0.14 | 0.00 | 62 | 1012.3 |
| 20260508092640 | 62 | 292 | 6.1 | 6.1 | 0.00 | 0.14 | 0.00 | 64 | 1012.3 |
| 20260508090639 | 63 | 292 | 5.2 | 5.2 | 0.00 | 0.14 | 0.00 | 61 | 1012.1 |
| 20260508085640 | 64 | 270 | 1.7 | 1.7 | 0.00 | 0.14 | 0.00 | 60 | 1012.0 |
| 20260508083642 | 63 | 315 | 4.3 | 4.3 | 0.00 | 0.14 | 0.00 | 62 | 1011.9 |
| 20260508081641 | 62 | 22 | 2.6 | 2.6 | 0.00 | 0.14 | 0.00 | 63 | 1011.9 |
| 20260508074640 | 63 | 68 | 1.7 | 1.7 | 0.00 | 0.14 | 0.00 | 63 | 1012.1 |
| 20260508073640 | 62 | 68 | 4.3 | 4.3 | 0.00 | 0.14 | 0.00 | 64 | 1012.1 |
| 20260508072640 | 61 | 112 | 4.3 | 4.3 | 0.00 | 0.14 | 0.00 | 67 | 1012.2 |
| 20260508070640 | 61 | 90 | 3.5 | 3.5 | 0.00 | 0.14 | 0.00 | 69 | 1012.2 |
| 20260508065640 | 58 | 158 | 1.7 | 1.7 | 0.00 | 0.14 | 0.00 | 71 | 1012.1 |
| 20260508064640 | 57 | 158 | 1.7 | 1.7 | 0.00 | 0.14 | 0.00 | 74 | 1011.8 |
| 20260508063640 | 56 | 180 | 1.7 | 1.7 | 0.00 | 0.14 | 0.00 | 76 | 1011.6 |
| 20260508061641 | 56 | 112 | 3.5 | 3.5 | 0.00 | 0.14 | 0.00 | 82 | 1011.2 |
| 20260508060641 | 56 | 158 | 1.7 | 1.7 | 0.00 | 0.14 | 0.00 | 78 | 1011.5 |
| 20260508054641 | 55 | 158 | 0.9 | 0.9 | 0.00 | 0.14 | 0.00 | 77 | 1011.7 |
| 20260508052640 | 56 | 158 | 3.5 | 3.5 | 0.00 | 0.14 | 0.00 | 76 | 1011.6 |
| 20260508050639 | 56 | 158 | 1.7 | 1.7 | 0.00 | 0.14 | 0.00 | 77 | 1011.5 |
| 20260508045640 | 56 | 158 | 0.0 | 0.0 | 0.00 | 0.14 | 0.00 | 77 | 1011.5 |
| 20260508044641 | 56 | 158 | 0.0 | 0.0 | 0.00 | 0.14 | 0.00 | 77 | 1011.2 |
| 20260508043641 | 55 | 158 | 0.0 | 0.0 | 0.00 | 0.14 | 0.00 | 78 | 1011.5 |
| 20260508042641 | 56 | 158 | 0.0 | 0.0 | 0.00 | 0.14 | 0.00 | 79 | 1011.5 |
| 20260508041641 | 56 | 158 | 1.7 | 1.7 | 0.00 | 0.14 | 0.00 | 76 | 1011.3 |
| 20260508040640 | 56 | 158 | 1.7 | 1.7 | 0.00 | 0.14 | 0.00 | 75 | 1011.4 |
| 20260508035641 | 55 | 158 | 0.0 | 0.0 | 0.00 | 0.14 | 0.00 | 76 | 1011.7 |
| 20260508034640 | 56 | 158 | 0.0 | 0.0 | 0.00 | 0.14 | 0.00 | 76 | 1011.4 |
| 20260508033641 | 56 | 158 | 0.0 | 0.0 | 0.00 | 0.14 | 0.00 | 76 | 1011.4 |
| 20260508032641 | 56 | 158 | 2.6 | 2.6 | 0.00 | 0.14 | 0.00 | 76 | 1011.3 |
| 20260508030641 | 57 | 158 | 0.0 | 0.0 | 0.00 | 0.14 | 0.00 | 74 | 1011.1 |
| 20260508025640 | 56 | 158 | 1.7 | 1.7 | 0.00 | 0.14 | 0.00 | 74 | 1011.3 |
| 20260508024641 | 56 | 158 | 0.0 | 0.0 | 0.00 | 0.14 | 0.00 | 75 | 1011.3 |
| 20260508023641 | 57 | 158 | 0.9 | 0.9 | 0.00 | 0.14 | 0.00 | 75 | 1011.1 |
| 20260508022641 | 57 | 158 | 0.9 | 0.9 | 0.00 | 0.14 | 0.00 | 74 | 1011.0 |
| 20260508021639 | 57 | 158 | 0.9 | 0.9 | 0.00 | 0.14 | 0.00 | 73 | 1011.0 |
| 20260508020640 | 58 | 158 | 1.7 | 1.7 | 0.00 | 0.14 | 0.00 | 74 | 1010.9 |
| 20260508015640 | 58 | 135 | 2.6 | 2.6 | 0.00 | 0.14 | 0.00 | 72 | 1010.7 |
| 20260508014641 | 58 | 112 | 4.3 | 4.3 | 0.00 | 0.14 | 0.00 | 71 | 1010.7 |
| 20260508013640 | 58 | 112 | 4.3 | 4.3 | 0.00 | 0.14 | 0.00 | 74 | 1010.7 |
| 20260508011641 | 57 | 112 | 1.7 | 1.7 | 0.00 | 0.14 | 0.00 | 78 | 1011.2 |
| 20260508005641 | 57 | 112 | 4.3 | 4.3 | 0.00 | 0.14 | 0.00 | 79 | 1011.7 |
| 20260508003640 | 58 | 158 | 4.3 | 4.3 | 0.00 | 0.14 | 0.00 | 76 | 1012.0 |
| 20260508001641 | 60 | 270 | 1.7 | 1.7 | 0.00 | 0.14 | 0.00 | 72 | 1012.3 |
| 20260508000641 | 60 | 270 | 1.7 | 1.7 | 0.00 | 0.14 | 0.00 | 68 | 1012.3 |
| 20260507235640 | 60 | 270 | 2.6 | 2.6 | 0.14 | 0.14 | 0.14 | 63 | 1012.2 |
| 20260507232640 | 61 | 202 | 1.7 | 1.7 | 0.14 | 0.14 | 0.14 | 65 | 1012.2 |
| 20260507230641 | 60 | 225 | 1.7 | 1.7 | 0.14 | 0.14 | 0.14 | 64 | 1012.1 |
| 20260507225640 | 60 | 180 | 4.3 | 4.3 | 0.00 | 0.00 | 0.00 | 67 | 1012.1 |
| 20260507224640 | 60 | 180 | 2.6 | 2.6 | 0.00 | 0.14 | 0.14 | 68 | 1012.2 |
| 20260507222641 | 61 | 158 | 1.7 | 1.7 | 0.00 | 0.14 | 0.14 | 66 | 1012.5 |
| 20260507221641 | 61 | 158 | 1.7 | 1.7 | 0.00 | 0.14 | 0.14 | 64 | 1012.6 |
| 20260507220640 | 61 | 158 | 4.3 | 4.3 | 0.00 | 0.14 | 0.14 | 64 | 1012.8 |
| 20260507213640 | 62 | 202 | 1.7 | 1.7 | 0.00 | 0.14 | 0.14 | 62 | 1012.8 |
| 20260507212640 | 62 | 248 | 1.7 | 1.7 | 0.00 | 0.14 | 0.14 | 62 | 1012.8 |
| 20260507211641 | 62 | 202 | 3.5 | 3.5 | 0.00 | 0.14 | 0.14 | 62 | 1012.7 |
| 20260507210641 | 62 | 202 | 1.7 | 1.7 | 0.00 | 0.14 | 0.14 | 62 | 1012.5 |
| 20260507205642 | 62 | 180 | 6.1 | 6.1 | 0.00 | 0.14 | 0.14 | 62 | 1012.3 |
| 20260507204640 | 62 | 158 | 1.7 | 1.7 | 0.00 | 0.14 | 0.14 | 60 | 1012.1 |
| 20260507203640 | 63 | 158 | 1.7 | 1.7 | 0.00 | 0.14 | 0.14 | 60 | 1012.0 |
| 20260507202640 | 63 | 158 | 1.7 | 1.7 | 0.00 | 0.14 | 0.14 | 59 | 1011.8 |
| 20260507201641 | 63 | 135 | 1.7 | 1.7 | 0.00 | 0.14 | 0.14 | 58 | 1011.7 |
| 20260507200640 | 63 | 180 | 3.5 | 3.5 | 0.00 | 0.14 | 0.14 | 59 | 1011.5 |
| 20260507195641 | 62 | 180 | 4.3 | 4.3 | 0.00 | 0.14 | 0.14 | 58 | 1011.4 |
| 20260507193640 | 62 | 180 | 4.3 | 4.3 | 0.00 | 0.14 | 0.14 | 59 | 1011.0 |
| 20260507191640 | 62 | 112 | 4.3 | 4.3 | 0.00 | 0.14 | 0.14 | 56 | 1010.7 |
| 20260507190641 | 62 | 112 | 2.6 | 2.6 | 0.00 | 0.14 | 0.14 | 60 | 1010.6 |
| 20260507185640 | 62 | 112 | 4.3 | 4.3 | 0.00 | 0.14 | 0.14 | 60 | 1010.6 |
| 20260507184639 | 63 | 158 | 3.5 | 3.5 | 0.00 | 0.14 | 0.14 | 61 | 1010.5 |
| 20260507183640 | 63 | 248 | 0.9 | 0.9 | 0.00 | 0.14 | 0.14 | 55 | 1010.3 |
| 20260507182640 | 64 | 248 | 0.0 | 0.0 | 0.00 | 0.14 | 0.14 | 53 | 1010.1 |
| 20260507181640 | 64 | 68 | 0.0 | 0.0 | 0.00 | 0.14 | 0.14 | 52 | 1010.1 |
| 20260507180641 | 65 | 315 | 3.5 | 3.5 | 0.00 | 0.14 | 0.14 | 50 | 1009.9 |
| 20260507175641 | 68 | 0 | 5.2 | 5.2 | 0.00 | 0.14 | 0.14 | 48 | 1009.7 |
| 20260507174640 | 66 | 180 | 0.0 | 0.0 | 0.00 | 0.14 | 0.14 | 45 | 1009.5 |
| 20260507173640 | 66 | 248 | 4.3 | 4.3 | 0.00 | 0.14 | 0.14 | 45 | 1009.7 |
| 20260507171642 | 66 | 270 | 7.0 | 7.0 | 0.00 | 0.14 | 0.14 | 45 | 1009.4 |
| 20260507170640 | 66 | 270 | 7.0 | 7.0 | 0.00 | 0.14 | 0.14 | 45 | 1009.4 |
| 20260507165640 | 66 | 270 | 7.0 | 7.0 | 0.00 | 0.14 | 0.14 | 45 | 1009.4 |
| 20260507164640 | 67 | 270 | 6.1 | 6.1 | 0.00 | 0.14 | 0.14 | 51 | 1009.2 |
| 20260507163640 | 68 | 315 | 13.0 | 13.0 | 0.00 | 0.14 | 0.14 | 48 | 1009.1 |
| 20260507162640 | 68 | 90 | 1.7 | 1.7 | 0.00 | 0.14 | 0.14 | 48 | 1009.2 |
| 20260507161641 | 67 | 90 | 3.5 | 3.5 | 0.00 | 0.14 | 0.14 | 48 | 1009.1 |
| 20260507160640 | 67 | 90 | 4.3 | 4.3 | 0.00 | 0.14 | 0.14 | 49 | 1009.0 |
| 20260507155641 | 67 | 112 | 2.6 | 2.6 | 0.00 | 0.14 | 0.14 | 50 | 1009.0 |
| 20260507153641 | 67 | 112 | 4.3 | 4.3 | 0.00 | 0.14 | 0.14 | 47 | 1009.1 |
| 20260507151641 | 66 | 112 | 1.7 | 1.7 | 0.00 | 0.14 | 0.14 | 58 | 1009.2 |
| 20260507150640 | 68 | 135 | 6.1 | 6.1 | 0.00 | 0.14 | 0.14 | 56 | 1009.3 |
| 20260507145641 | 68 | 135 | 4.3 | 4.3 | 0.00 | 0.14 | 0.14 | 56 | 1009.4 |
| 20260507144642 | 67 | 158 | 4.3 | 4.3 | 0.00 | 0.14 | 0.14 | 59 | 1009.8 |
| 20260507143639 | 67 | 158 | 4.3 | 4.3 | 0.00 | 0.14 | 0.14 | 59 | 1009.8 |
| 20260507142640 | 67 | 158 | 5.2 | 5.2 | 0.11 | 0.14 | 0.14 | 55 | 1009.9 |
| 20260507141641 | 67 | 180 | 1.7 | 1.7 | 0.13 | 0.14 | 0.14 | 56 | 1010.2 |
| 20260507140640 | 64 | 180 | 4.3 | 4.3 | 0.14 | 0.14 | 0.14 | 57 | 1010.3 |
| 20260507135641 | 61 | 158 | 4.3 | 4.3 | 0.14 | 0.14 | 0.14 | 66 | 1010.3 |
| 20260507134642 | 60 | 135 | 6.1 | 6.1 | 0.14 | 0.14 | 0.14 | 71 | 1010.5 |
| 20260507132640 | 63 | 180 | 6.1 | 6.1 | 0.02 | 0.02 | 0.02 | 68 | 1010.7 |
| 20260507131640 | 68 | 112 | 4.3 | 4.3 | 0.00 | 0.00 | 0.00 | 66 | 1010.6 |
| 20260507130640 | 69 | 90 | 2.6 | 2.6 | 0.00 | 0.00 | 0.00 | 44 | 1010.2 |
| 20260507125641 | 69 | 112 | 4.3 | 4.3 | 0.00 | 0.00 | 0.00 | 41 | 1010.0 |
| 20260507124641 | 68 | 45 | 0.9 | 0.9 | 0.00 | 0.00 | 0.00 | 43 | 1010.1 |
| 20260507123641 | 69 | 270 | 6.1 | 6.1 | 0.00 | 0.00 | 0.00 | 42 | 1010.2 |
| 20260507122640 | 69 | 68 | 4.3 | 4.3 | 0.00 | 0.00 | 0.00 | 42 | 1010.4 |
| 20260507121642 | 68 | 0 | 4.3 | 4.3 | 0.00 | 0.00 | 0.00 | 41 | 1010.4 |
| 20260507120640 | 68 | 270 | 8.7 | 8.7 | 0.00 | 0.00 | 0.00 | 42 | 1010.6 |
| 20260507115642 | 68 | 270 | 4.3 | 4.3 | 0.00 | 0.00 | 0.00 | 42 | 1010.8 |
| 20260507114640 | 68 | 90 | 4.3 | 4.3 | 0.00 | 0.00 | 0.00 | 44 | 1010.9 |
| 20260507111641 | 67 | 270 | 5.2 | 5.2 | 0.00 | 0.00 | 0.00 | 43 | 1011.2 |